[[{"header":{"parameterUnit":"m.s-1","parameterCategory":1,"la1":30.2991,"la2":30.254,"lo1":-89.0895,"lo2":-89.0444,"dy":0.0017,"dx":0.0017,"nx":28,"ny":28,"refTime":"2024-03-24T09:00:00:Z","depth":0,"parameterNumber":2,"parameterNumberName":"U-component_of_WINDS"},"data":[0,0,0,0,0,0,0,0,0,0,0,0,0,0,0,0,0,0,0,0,0,0,0,0,0,0,0,0,0,0,0,0,0,0,0,0,0,0,0,0,0,0,0,0,0,0,0,0,0,0,0,0,0,0,0,0,0,0,-5.5168,-5.5168,0,-5.5203,-5.5203,-5.5203,-5.5086,-5.5082,-5.5079,-5.5075,-5.5113,-5.5117,-5.5121,0,0,0,0,0,0,0,0,0,0,0,0,0,-5.5001,-5.5004,-5.5168,-5.5168,-5.5169,-5.5203,-5.5203,-5.5204,-5.5087,-5.5082,-5.5078,-5.5074,-5.5112,-5.5117,-5.5122,0,0,0,0,0,0,0,0,0,0,0,0,0,-5.5058,-5.5005,-5.5168,-5.5114,-5.511,-5.5203,-5.5203,-5.5204,-5.5087,-5.5082,-5.5077,-5.5072,-5.511,-5.5116,-5.5122,-5.5269,0,0,-5.5142,-5.5145,0,0,0,0,0,0,0,0,-5.5055,-5.5064,-5.5122,-5.5118,-5.5113,-5.5134,-5.5158,-5.5226,-5.5089,-5.5096,-5.5075,-5.5069,-5.5125,-5.5129,-5.5148,-5.5271,-5.5272,-5.5143,-5.5147,-5.515,-5.5151,0,0,0,0,0,0,0,-5.5051,-5.5062,-5.5181,-5.5123,-5.5117,-5.5089,-5.5091,-5.517,-5.514,-5.5095,-5.5086,-5.5092,-5.5121,-5.5142,-5.5148,-5.5273,-5.5143,-5.5148,-5.5152,-5.5155,-5.5518,-5.5524,0,0,0,0,0,0,-5.5054,-5.506,-5.518,-5.5182,-5.507,-5.5096,-5.5099,-5.5133,-5.5139,-5.5134,-5.5097,-5.5087,-5.5133,-5.514,-5.5149,-5.5321,-5.5149,-5.5156,-5.5159,-5.5513,-5.552,-5.5526,0,0,0,0,0,0,-5.5051,-5.5066,-5.5179,-5.5119,-5.5131,-5.5105,-5.5144,-5.5137,-5.5157,-5.514,-5.5134,-5.5123,-5.5129,-5.514,-5.524,-5.532,-5.5158,-5.5164,-5.5506,-5.5515,-5.5523,-5.5666,0,0,0,0,0,0,-5.5047,-5.5066,-5.5121,-5.5121,-5.5135,-5.527,-5.5149,-5.5141,-5.5168,-5.5155,-5.5163,-5.5159,-5.5126,-5.5231,-5.5246,-5.5326,-5.5169,-5.5498,-5.551,-5.552,-5.5654,-5.5679,-5.57,0,0,0,0,0,-5.5041,-5.516,-5.5124,-5.5139,-5.5203,-5.5275,-5.5282,-5.5241,-5.5175,-5.5231,-5.522,-5.5159,-5.5309,-5.5242,-5.5259,-5.5342,-5.5493,-5.5507,-5.5519,-5.5644,-5.5674,-5.5699,0,0,0,0,0,0,-5.517,-5.5159,-5.5119,-5.5241,-5.526,-5.5254,-5.5323,-5.5274,-5.5312,-5.5298,-5.5246,-5.5249,-5.5359,-5.536,-5.5286,-5.5484,-5.539,-5.5407,-5.5479,-5.5508,-5.553,-5.5528,-5.5175,0,0,0,0,0,-5.5213,-5.5271,-5.5258,-5.5368,-5.5379,-5.535,-5.5379,-5.5346,-5.5363,-5.5371,-5.5367,-5.5386,-5.5437,-5.5472,-5.5519,-5.5654,-5.5654,-5.5719,-5.5742,-5.5761,-5.5776,-5.5848,-5.5877,-5.5568,-5.5568,-5.5568,0,0,-5.5301,-5.5303,-5.5343,-5.5394,-5.5404,-5.5466,-5.5357,-5.5428,-5.5474,-5.5381,-5.5476,-5.5474,-5.5492,-5.5611,-5.5663,-5.5615,-5.5862,-5.5777,-5.5793,-5.5798,-5.5865,-5.5894,-5.592,-5.5577,-5.5576,-5.5574,0,0,-5.5495,-5.5502,-5.5593,-5.5606,-5.5623,-5.5603,-5.5625,-5.5628,-5.5623,-5.5717,-5.5649,-5.5703,-5.5792,-5.5808,-5.5828,-5.6029,-5.5975,-5.6045,-5.6164,-5.6235,-5.626,-5.6281,-5.6353,-5.638,-5.606,-5.6061,-5.6061,0,-5.5603,-5.5694,-5.5647,-5.5722,-5.5747,-5.5666,-5.5759,-5.5774,-5.5805,-5.5825,-5.5771,-5.5881,-5.5888,-5.6009,-5.6058,-5.6077,-5.6101,-5.6044,-5.626,-5.6281,-5.63,-5.6368,-5.6396,-5.6069,-5.6068,-5.6067,-5.6067,0,-5.5827,-5.5891,-5.5963,-5.5995,-5.6028,-5.6112,-5.6078,-5.6117,-5.6081,-5.6067,-5.6164,-5.6169,-5.6215,-5.6242,-5.6207,-5.6359,-5.6329,-5.6269,-5.6173,-5.6339,-5.6402,-5.6428,-5.6082,-5.6078,-5.6076,-5.6074,0,0,-5.6102,-5.6108,-5.6135,-5.6149,-5.6162,-5.6211,-5.6291,-5.6336,-5.6371,-5.6395,-5.6462,-5.654,-5.6484,-5.6507,-5.6474,-5.6536,-5.6695,-5.6468,-5.6467,-5.651,-5.6863,-5.6909,-5.694,-5.6659,-5.6664,-5.6668,-5.6862,0,-5.6293,-5.643,-5.6391,-5.6529,-5.6588,-5.6512,-5.6582,-5.6598,-5.6588,-5.6636,-5.6624,-5.668,-5.6602,-5.6616,-5.6674,-5.6664,-5.6766,-5.6649,-5.6722,-5.6725,-5.672,-5.6973,-5.7021,-5.7204,-5.6886,-5.6891,-5.6893,0,-5.6534,-5.6568,-5.6712,-5.6715,-5.6739,-5.6803,-5.6841,-5.6888,-5.6905,-5.6893,-5.6919,-5.6873,-5.6952,-5.6856,-5.6966,-5.6888,-5.6915,-5.6915,-5.6921,-5.6926,-5.682,-5.6986,-5.7261,-5.7289,-5.6932,-5.6929,-5.6926,0,-5.6721,-5.6803,-5.69,-5.6914,-5.692,-5.6967,-5.6972,-5.6983,-5.7013,-5.7047,-5.7065,-5.7108,-5.7132,-5.7166,-5.7134,-5.7066,-5.7249,-5.715,-5.7242,-5.7243,-5.7284,-5.7282,-5.7568,-5.7301,-5.7301,-5.73,-5.73,0,-5.6939,-5.703,-5.6984,-5.7044,-5.7144,-5.7098,-5.7199,-5.7195,-5.7206,-5.7264,-5.7201,-5.7257,-5.721,-5.7262,-5.7237,-5.7332,-5.7343,-5.7336,-5.7328,-5.7342,-5.7343,-5.7359,-5.7346,-5.7307,-5.7306,-5.7304,-5.7303,0,-5.7165,-5.7138,-5.7239,-5.7236,-5.7238,-5.7312,-5.731,-5.7366,-5.735,-5.7425,-5.744,-5.7416,-5.7474,-5.7444,-5.7505,-5.7488,-5.7611,-5.7586,-5.7606,-5.7599,-5.7693,-5.7685,-5.8,-5.804,-5.7747,-5.775,-5.7752,0,-5.7306,-5.7374,-5.7379,-5.7414,-5.7423,-5.7479,-5.7508,-5.7466,-5.75,-5.7524,-5.7577,-5.763,-5.7669,-5.7766,-5.7755,-5.7801,-5.7777,-5.7884,-5.7783,-5.7795,-5.7779,-5.7775,-5.7782,-5.7905,-5.7908,-5.7911,-5.7913,0,-5.7559,-5.7542,-5.7587,-5.7628,-5.7666,-5.7696,-5.7721,-5.7753,-5.7711,-5.7753,-5.7811,-5.7842,-5.7903,-5.7957,-5.7997,-5.8002,-5.7952,-5.7945,-5.7969,-5.7983,-5.7992,-5.7989,-5.7661,-5.7938,-5.7935,-5.7933,-5.7932,-5.7931,-5.7746,-5.7804,-5.7817,-5.787,-5.7884,-5.7909,-5.7961,-5.7952,-5.8,-5.8047,-5.8019,-5.8088,-5.8103,-5.8152,-5.8164,-5.8218,-5.8175,-5.8209,-5.8218,-5.8227,-5.824,-5.7983,-5.8225,-5.8224,-5.8223,-5.8223,-5.8222,0,-5.7996,-5.8001,-5.805,-5.8087,-5.8129,-5.8077,-5.8102,-5.8141,-5.8202,-5.822,-5.8261,-5.8329,-5.838,-5.8373,-5.842,-5.8465,-5.8443,-5.8478,-5.8475,-5.8477,-5.8275,-5.825,-5.8495,-5.8495,-5.8495,-5.8495,-5.8495,-5.8495,-5.8131,-5.8226,-5.8211,-5.8312,-5.8316,-5.8383,-5.8402,-5.8425,-5.8439,-5.8518,-5.856,-5.8555,-5.8563,-5.8611,-5.8656,-5.8653,-5.8673,-5.8718,-5.8707,-5.8518,-5.8491,-5.8465,-5.8442,-5.8723,-5.8723,-5.8903,-5.8905,-5.8906]},{"header":{"parameterUnit":"m.s-1","parameterCategory":1,"la1":30.2991,"la2":30.254,"lo1":-89.0895,"lo2":-89.0444,"dy":0.0017,"dx":0.0017,"nx":28,"ny":28,"refTime":"2024-03-24T09:00:00:Z","depth":0,"parameterNumber":3,"parameterNumberName":"V-component_of_WINDS"},"data":[0,0,0,0,0,0,0,0,0,0,0,0,0,0,0,0,0,0,0,0,0,0,0,0,0,0,0,0,0,0,0,0,0,0,0,0,0,0,0,0,0,0,0,0,0,0,0,0,0,0,0,0,0,0,0,0,0,0,-0.52,-0.52,0,-0.5219,-0.5219,-0.5219,-0.5216,-0.5216,-0.5215,-0.5215,-0.5235,-0.5236,-0.5237,0,0,0,0,0,0,0,0,0,0,0,0,0,-0.516,-0.5161,-0.52,-0.52,-0.52,-0.5219,-0.5219,-0.5219,-0.5216,-0.5216,-0.5215,-0.5215,-0.5235,-0.5236,-0.5237,0,0,0,0,0,0,0,0,0,0,0,0,0,-0.5178,-0.5161,-0.52,-0.5201,-0.5201,-0.5219,-0.5219,-0.522,-0.5216,-0.5216,-0.5215,-0.5215,-0.5234,-0.5236,-0.5237,-0.5255,0,0,-0.5241,-0.5241,0,0,0,0,0,0,0,0,-0.5177,-0.5179,-0.5201,-0.5201,-0.5201,-0.5215,-0.5212,-0.5231,-0.5216,-0.5211,-0.5215,-0.5214,-0.5229,-0.523,-0.5235,-0.5256,-0.5257,-0.5241,-0.5242,-0.5242,-0.5242,0,0,0,0,0,0,0,-0.5176,-0.5179,-0.5208,-0.5201,-0.5201,-0.52,-0.5202,-0.5216,-0.5222,-0.5211,-0.5211,-0.5213,-0.5229,-0.5234,-0.5235,-0.5257,-0.5241,-0.5242,-0.5243,-0.5243,-0.5292,-0.5292,0,0,0,0,0,0,-0.5174,-0.5178,-0.5207,-0.5208,-0.5188,-0.5201,-0.5204,-0.5211,-0.5222,-0.5223,-0.5213,-0.5213,-0.5232,-0.5234,-0.5236,-0.5257,-0.5242,-0.5243,-0.5244,-0.5291,-0.5292,-0.5292,0,0,0,0,0,0,-0.5173,-0.5177,-0.5206,-0.5193,-0.5196,-0.5203,-0.5211,-0.5211,-0.5217,-0.5224,-0.5225,-0.5218,-0.5232,-0.5234,-0.525,-0.5258,-0.5244,-0.5245,-0.529,-0.5291,-0.5292,-0.5299,0,0,0,0,0,0,-0.5172,-0.5177,-0.5184,-0.5193,-0.5197,-0.522,-0.5211,-0.5212,-0.5219,-0.5218,-0.5228,-0.5229,-0.5231,-0.5248,-0.5251,-0.5259,-0.5246,-0.529,-0.5291,-0.5292,-0.5298,-0.53,-0.5302,0,0,0,0,0,-0.5171,-0.5186,-0.5184,-0.5188,-0.5206,-0.522,-0.5223,-0.5225,-0.5219,-0.5226,-0.5231,-0.5229,-0.5256,-0.5249,-0.5253,-0.5262,-0.5289,-0.5291,-0.5292,-0.5298,-0.53,-0.5302,0,0,0,0,0,0,-0.5178,-0.5187,-0.5185,-0.5204,-0.5211,-0.522,-0.5229,-0.5227,-0.5237,-0.5236,-0.5238,-0.524,-0.5256,-0.526,-0.5253,-0.5279,-0.5272,-0.5274,-0.5275,-0.5278,-0.5279,-0.5278,-0.5247,0,0,0,0,0,-0.5181,-0.5192,-0.5199,-0.5215,-0.5218,-0.5223,-0.5229,-0.523,-0.5238,-0.5241,-0.5247,-0.5254,-0.5264,-0.5271,-0.5281,-0.5299,-0.5301,-0.5306,-0.5308,-0.5309,-0.5311,-0.532,-0.5322,-0.5296,-0.5296,-0.5296,0,0,-0.5189,-0.5195,-0.5202,-0.5216,-0.5222,-0.5232,-0.5226,-0.5237,-0.5245,-0.5243,-0.5257,-0.5262,-0.527,-0.5287,-0.5294,-0.5291,-0.5319,-0.5311,-0.5312,-0.5313,-0.5321,-0.5324,-0.5326,-0.5297,-0.5297,-0.5297,0,0,-0.5208,-0.5214,-0.5227,-0.5233,-0.5241,-0.5244,-0.5247,-0.5255,-0.5258,-0.5273,-0.5271,-0.528,-0.5298,-0.5303,-0.5309,-0.5328,-0.5326,-0.5331,-0.534,-0.5349,-0.5351,-0.5353,-0.5359,-0.5361,-0.5333,-0.5333,-0.5333,0,-0.5217,-0.5233,-0.5234,-0.5245,-0.5251,-0.5249,-0.5261,-0.5267,-0.5279,-0.5282,-0.5279,-0.53,-0.5306,-0.5323,-0.5327,-0.5332,-0.5335,-0.533,-0.535,-0.5352,-0.5354,-0.536,-0.5362,-0.5334,-0.5333,-0.5333,-0.5333,0,-0.5242,-0.5253,-0.5262,-0.5273,-0.528,-0.5292,-0.5294,-0.5301,-0.5301,-0.5303,-0.5318,-0.5324,-0.5335,-0.5339,-0.5339,-0.5356,-0.5353,-0.535,-0.5343,-0.5357,-0.5362,-0.5365,-0.5334,-0.5334,-0.5334,-0.5334,0,0,-0.5268,-0.5277,-0.5281,-0.5285,-0.5293,-0.5302,-0.5313,-0.5323,-0.5328,-0.5336,-0.5345,-0.5359,-0.5356,-0.5362,-0.5362,-0.537,-0.5383,-0.5365,-0.5365,-0.5368,-0.5401,-0.5403,-0.5406,-0.5382,-0.5383,-0.5383,-0.54,0,-0.5287,-0.5307,-0.5308,-0.5326,-0.5335,-0.5332,-0.5342,-0.5348,-0.535,-0.5359,-0.5362,-0.5371,-0.5366,-0.537,-0.5377,-0.538,-0.539,-0.5379,-0.539,-0.5391,-0.5388,-0.5409,-0.5412,-0.5427,-0.5402,-0.5403,-0.5403,0,-0.5313,-0.532,-0.5339,-0.5345,-0.5349,-0.5358,-0.5366,-0.5374,-0.538,-0.5382,-0.5387,-0.5387,-0.5398,-0.539,-0.5405,-0.5397,-0.5402,-0.5404,-0.5405,-0.5406,-0.5398,-0.541,-0.5432,-0.5435,-0.5406,-0.5406,-0.5406,0,-0.5328,-0.5343,-0.5356,-0.536,-0.5367,-0.5373,-0.5376,-0.5382,-0.5388,-0.5395,-0.5398,-0.5407,-0.5411,-0.5418,-0.5419,-0.5414,-0.5433,-0.5426,-0.5434,-0.5434,-0.5439,-0.5439,-0.5462,-0.5442,-0.5442,-0.5442,-0.5442,0,-0.535,-0.5361,-0.5363,-0.5371,-0.5383,-0.5383,-0.5396,-0.5398,-0.5403,-0.5411,-0.5409,-0.5417,-0.5418,-0.5426,-0.5427,-0.5439,-0.5441,-0.5442,-0.5442,-0.5442,-0.5442,-0.5445,-0.5444,-0.5443,-0.5443,-0.5443,-0.5442,0,-0.537,-0.5371,-0.5385,-0.539,-0.5392,-0.54,-0.5405,-0.5412,-0.5414,-0.5424,-0.5426,-0.5429,-0.5438,-0.544,-0.545,-0.5451,-0.5464,-0.5464,-0.5462,-0.5462,-0.547,-0.5469,-0.5496,-0.5499,-0.5478,-0.5478,-0.5478,0,-0.5383,-0.5392,-0.5398,-0.5402,-0.5406,-0.5414,-0.5419,-0.5419,-0.5425,-0.5432,-0.5438,-0.5446,-0.5453,-0.5467,-0.547,-0.5478,-0.5477,-0.5486,-0.5478,-0.5478,-0.5477,-0.5476,-0.5476,-0.5487,-0.5488,-0.5488,-0.5488,0,-0.5407,-0.5407,-0.5414,-0.5421,-0.5427,-0.5433,-0.5438,-0.5443,-0.5443,-0.5449,-0.5458,-0.5463,-0.5473,-0.5481,-0.5489,-0.5492,-0.549,-0.549,-0.5492,-0.5492,-0.5491,-0.5491,-0.5466,-0.549,-0.549,-0.549,-0.5489,-0.5489,-0.5424,-0.5431,-0.5435,-0.5443,-0.5447,-0.5452,-0.5458,-0.546,-0.5467,-0.5475,-0.5475,-0.5484,-0.5489,-0.5499,-0.5502,-0.5509,-0.5506,-0.551,-0.5511,-0.5511,-0.5512,-0.549,-0.5511,-0.5511,-0.5511,-0.5511,-0.5511,0,-0.5447,-0.5449,-0.5456,-0.5463,-0.5469,-0.5466,-0.5471,-0.5476,-0.5484,-0.5489,-0.5495,-0.5505,-0.5512,-0.5515,-0.5522,-0.5527,-0.5527,-0.5529,-0.5529,-0.5529,-0.5514,-0.5511,-0.553,-0.553,-0.553,-0.553,-0.553,-0.553,-0.5459,-0.547,-0.547,-0.5483,-0.5485,-0.5494,-0.5497,-0.5501,-0.5505,-0.5515,-0.5521,-0.5523,-0.5526,-0.5534,-0.554,-0.5541,-0.5544,-0.5547,-0.5547,-0.5533,-0.5531,-0.5529,-0.5526,-0.5547,-0.5547,-0.5561,-0.5561,-0.5562]}]]